STARLINK-32815, 62956

Orbit data source: Space-Track

STARLINK-32815, 62956 is a payload satellite owned by SpaceX/Seattle (US) in LEO that was launched on Tue, 11 Feb 2025 UTC via an FALCON 9 launch vehicle from the Air Force Western Test Range (AFWTR). Payload-class satellites include a variety of spacecraft equipped with specific instruments for various scientific and technological missions. These include communications satellites like Starlink; space stations such as the ISS; scientific satellites like the Hubble; Earth observation satellites from companies like Planet Labs, Umbra, and HawkEye 360; GPS; miniature CubeSats for education and research; and military/defense satellites.

Loading next visibility...
Identifier
62956, 2025-029J
Orbit
LEO
Country
Flag of USUS
Related business
Manufacturer
SpaceX/Seattle
Mission
Operational Commercial Communications
Bus & Motor
STARLINK V2M, Unknown motor
Mass
730 kg wet, ~700 kg dry
Launch date (UTC)
2025-02-11 (1 year ago)
Launch vehicle
FALCON 9
Launch site
Air Force Western Test Range (AFWTR)
Object type
Payload
Rocket body
Debris
Shape & HBR
Box + 2 Pan, 17.7 m
Radar Cross Section
33.884 m², Large (>1 m²)

Expand to show TLE details & history
Last TLE update: 2 days ago

TLE from 2 days ago
0 STARLINK-32815
1 62956U 25029J   26170.13867941  .00032368  00000-0  96480-3 0  9993
2 62956  53.1599 118.1369 0001405  95.9800 264.1362 15.34406373 76904
Epoch: 2026-06-19T03:19Z
TLE epoch observation values (Epoch: 2026-06-19T03:19:41.901Z)
Latitude
-0.00006°
Longitude
160.84032°
Altitude
463.684 km
Speed
7.636 km/s
True Right ascension
07h 52m 32s
True Declination
0° 00' 00"
Sunlit
Object was in daylight at epoch
Visualization orbit readout
Latitude
Unknown
Longitude
Unknown
Altitude
Unknown
Speed
Unknown
Apparent Right ascension
Unknown
Apparent Declination
Unknown
Sunlit
N/A
Visualization observer readout
Local Sidereal Time
07:18:18
Azimuth
Unknown
Elevation
Unknown
Doppler factor
Unknown
Orbital elements
Apogee altitude
463.902 km
Perigee altitude
461.98 km
Semi-major axis
6,841.078 km
Eccentricity
0.00014
Inclination
53.1599°
RAAN
118.1369°
Arg. of periapsis
95.98°
True anomaly
264.12018°
Mean anomaly
264.1362°
Eccentric anomaly
264.12819°
Mean motion
3.8358 °/min
Orbital period
93.85 mins
BSTAR
0.0009648
Loading maneuver chart data...
Computing Atmospheric mass density...
Loading historical data...
Loading historical data...
Loading historical data...
Loading historical data...
Loading historical data...
Loading historical data...
Loading historical data...

Documentation

Showing up to 5 results
|